Location: Buckland
(65.9785°N, 161.1281°W)
Time: 07:35:52
(UTC+00:00)

Transit 2A Rocket - Pass Details

Date: 27 November 2020
Orbit: 592 x 910 km, 66.7° (Epoch: 21 January)

Event Time Altitude Azimuth Distance (km) Brightness Sun altitude
Exits shadow 16:41:45 31° 261° (W) 1,378 5.8 -18.4°
Maximum altitude 16:44:28 87° 350° (N) 788 5.0 -18.2°
Drops below altitude 10° 16:49:36 10° 79° (E) 2,228 8.4 -17.7°
Sets 16:51:51 0° 80° (E) 3,100 9.4 -17.4°
